User: anonymous
Location: Caltech
(34.1382°N, 118.1253°W)
Time: 07:26:31
(UTC-07:00)
Language:

PAYLOAD A - Orbit

View from above orbital plane
View from above orbital plane
View from above satellite
View from above satellite

Ground track
Ground track

The orbit data is extracted from the following two-line orbital elements,

1 27840U 03031A   14112.13797826  .00000148  00000-0  59119-4 0  5213
2 27840 098.2407 142.9178 0097956 351.7431 045.5308 14.38696585567654
Epoch (UTC): 22 April 2014 03:18:41
Eccentricity: 0.0097956
inclination: 98.2407°
perigee height: 693 km
apogee height: 833 km
right ascension of ascending node: 142.9178°
argument of perigee: 351.7431°
revolutions per day: 14.38696585
mean anomaly at epoch: 45.5308°
orbit number at epoch: 56765

The dashed part of the orbit path shows where the satellite is in the earth's shadow,  

DLR